Regional Weather Roundup
Issued by NWS Portland, ME

Home | Current Version | Previous Version | Text Only | Print | Product List | Glossary On
Versions: 1 2 3 4 5 6 7 8 9 10 11 12 13 14 15 16 17 18 19 20 21 22 23 24 25 26 27 28 29 30 31 32 33 34 35 36 37 38 39 40 41 42 43 44 45 46 47 48 49 50
626
ASUS41 KGYX 150210
RWRGYX
WEATHER ROUNDUP FOR MAINE AND NEW HAMPSHIRE
NATIONAL WEATHER SERVICE GRAY ME
1000 PM EDT FRI MAY 14 2021

MEZ002-005-006-010-012-015-018-020-021-024-026-027-029-150300-
MAINE

CITY           SKY/WX    TMP DP  RH WIND       PRES   REMARKS
PORTLAND       CLOUDY    56  43  61 CALM      30.14R
SANFORD        CLOUDY    59  42  53 E3        30.14R
BAR HARBOR     MOCLDY    59  40  49 W7        30.10R
WISCASSET      PTCLDY    53  44  71 CALM      30.14R
ROCKLAND       PTCLDY    52  45  77 CALM      30.12R
FRYEBURG       PTCLDY    51  39  63 CALM      30.14R
LEWISTONAUBURN CLOUDY    61  39  44 CALM      30.14R
AUGUSTA        PTCLDY    60  36  40 NW6       30.12S
WATERVILLE     PTCLDY    60  39  45 NW7       30.09R
BANGOR         PTCLDY    52  43  71 SW3       30.10R
GREENVILLE       N/A     56  35  45 NW9       30.09R
MILLINOCKET    CLEAR     51  36  56 CALM      30.11R
HOULTON        CLEAR     42  30  62 CALM      30.09R
PRESQUE ISLE   CLEAR     44  32  62 CALM      30.11R
FRENCHVILLE    CLEAR     51  19  28 E5        30.10R
CARIBOU        CLEAR     51  23  33 N3        30.10R
$$

NHZ002-005-008-009-011-012-014-150300-
NEW HAMPSHIRE

CITY           SKY/WX    TMP DP  RH WIND       PRES   REMARKS
PORTSMOUTH     MOCLDY    58  39  50 N8        30.13R
ROCHESTER      PTCLDY    59  41  51 CALM      30.13R
NASHUA         PTCLDY    61  42  49 CALM      30.14R
MANCHESTER     MOCLDY    63  37  38 SE3       30.12R
CONCORD        PTCLDY    54  37  52 CALM      30.13R
LACONIA        PTCLDY    56  41  57 CALM      30.14R
PLYMOUTH       FAIR      51  39  65 CALM      30.14R
BERLIN         MOCLDY    49  39  68 SE3       30.16S
WHITEFIELD     PTCLDY    51  40  65 CALM      30.16R
JAFFREY        PTCLDY    52  42  69 CALM      30.17R
KEENE          MOCLDY    54  42  64 CALM      30.16R
LEBANON        CLEAR     52  37  56 CALM      30.15R
MT WASHINGTON  MOCLDY    36  27  69 N26G32      N/A
$$

VTZ005-007-008-150300-
VERMONT

CITY           SKY/WX    TMP DP  RH WIND       PRES   REMARKS
ST JOHNSBURY     N/A     55  39  54 MISG      30.14R
MONTPELIER     CLOUDY    55  35  47 SW3       30.20R
BURLINGTON     PTCLDY    61  41  47 S3        30.14R
$$

MAZ007-012-024-CTZ003-RIZ002-NYZ038-NYZ072-150300-
SOUTHERN NEW ENGLAND AND NY

CITY           SKY/WX    TMP DP  RH WIND       PRES   REMARKS
BOSTON         PTCLDY    65  41  41 SW9       30.14R
WORCESTER      PTCLDY    62  33  33 NW6       30.17R
NANTUCKET      CLEAR     51  48  89 SW8       30.19S
PROVIDENCE     PTCLDY    65  36  34 W12       30.16R
HARTFORD       PTCLDY    59  39  47 S6        30.16R
ALBANY         PTCLDY    58  32  37 W9        30.18R
NEW YORK CITY  PTCLDY    68  28  22 SW10      30.19R
$$

ANZ081-ANZ082-ANZ150-NHZ014-MEZ023>029-150300-
COASTAL MARINE OBSERVATIONS

STATION/POSITION TIME  TEMP    WIND        PRES    WAVE
                       AIR SEA DIR/SP/G            HT/PER
                 (UTC) (F)     (DEG/KT/KT) (MB)    (FT/S)
MOUNT DESERT ROC 0200          230/ 20/ 21 1018.9R
ISLE OF SHOALS   0200   61     230/ 13/ 14 1019.4R
JEFFREYS LEDGE   0156      51                N/A     2/ 3
CASHES LEDGE BUO 0150   52 49              1020.7F   2/13
$$

.............KEY..............
   WCI - WIND CHILL
   TC  - TEMPERATURE IN CELSIUS
   VSB - VISIBILITY IN MILES
   HX  - HEAT INDEX
   FAIR- INDICATES FEW OR NO CLOUDS BELOW 12,000 FT, WITH NO
         SIGNIFICANT WEATHER AND/OR OBSTRUCTIONS TO VISIBILITY.






USA.gov is the U.S. government's official web portal to all federal, state and local government web resources and services.